Skip Navigation Links
NOAA logo - Click to go to the NOAA homepage
NOAA's National Weather Service
Alaska Aviation Weather Unit
  NWS logo - Click to go to the NWS homepage
Left Navbar Graphic     22 AKDT = 06 GMT

   
NOAA is celebrating 200 years of science, service, and stewardship. Visit the NOAA 200th celebration Web site to learn more.
USA.gov is the U.S. Government's official Web portal to all Federal, state and local government Web resources and services.
Facebook
NWS on Facebook

Important Change Regarding the AAWU Web Presence

 

Over the last several months, the AAWU has been working to navigate its webpages to a nationally supported server. Security, as well as other needs, have necessitated the change.  In the process, we have made an effort to enhance the functionality of our website, as well as some of our products. As of June 20, 2017, aawu.arh.noaa.gov will be discontinued. The new AAWU web address is weather.gov/aawu. It is now live and will run in-parallel with the old site until it is discontinued. Please send any feedback or questions regarding the new webpages to nws.ar.aawu.webauthors@noaa.gov.  Thank you for your patience during this time of transition.
AAWU Home :: Display TAF Add Bookmark
METAR PANN 280053Z AUTO VRB05KT FEW100 14/M06 A2999 RMK AO2 SLP164
     T01441056 TSNO $=

METAR PANN 280153Z AUTO 19010KT 150V210 SCT090 14/M08 A2999 RMK AO2
     SLP162 T01391078 TSNO $=

METAR PANN 280253Z AUTO 29003KT OVC100 13/M04 A2999 RMK AO2 SLP162
 T01281044 56004 TSNO $=

METAR PANN 280353Z AUTO 19007KT OVC100 13/M04 A2998 RMK AO2 RAB35E50
     SLP159 P0000 T01331044 TSNO $=

METAR PANN 280453Z AUTO 19010KT BKN095 13/M04 A2999 RMK AO2 SLP162
     T01281044 TSNO $=

METAR PANN 280553Z AUTO 17007KT CLR 12/M03 A2999 RMK AO2 SLP162 60000
     T01171033 10144 20117 53000 TSNO $=


NOAA's National Weather Service
Alaska Aviation Weather Unit
6930 Sand Lake Road
Anchorage, AK 99502-1845
Disclaimer
Credits
Glossary
Privacy Policy
About Us
Career Opportunities
Contact AAWU Internet Services Site last modified: April, 17th 2012